Location: Newark
(34.1333°N, 7.9667°W)
Time: 22:03:12
(UTC+00:00)

Tiangong - Pass Details

Date: 27 September 2021
Orbit: 382 x 384 km, 41.5° (Epoch: 20 October)

Event Time Altitude Azimuth Distance (km) Brightness Sun altitude
Exits shadow 04:31:57 34° 83° (E) 647 2.7 -23.7°
Drops below altitude 10° 04:33:56 10° 69° (ENE) 1,394 5.0 -23.3°
Sets 04:36:01 0° 66° (ENE) 2,247 6.4 -22.9°
